Weather History for KMRH - November, 2012

Change the Weather History Date:

Monday, November 19, 2012

  Actual Average Record
Temperature  
Mean Temperature 53 °F -  
Max Temperature 55 °F 66 °F 80 °F (1985)
Min Temperature 50 °F 44 °F 26 °F (2014)
Degree Days  
Heating Degree Days 12    
Growing Degree Days 3 (Base 50)    
Moisture  
Dew Point 53 °F    
Average Humidity 98    
Maximum Humidity 100    
Minimum Humidity 93    
Precipitation  
Precipitation 0.00 in - - ()
Sea Level Pressure  
Sea Level Pressure 30.10 in    
Wind  
Wind Speed 21 mph (North)    
Max Wind Speed 25 mph    
Max Gust Speed 38 mph    
Visibility 8 miles    
Events Rain    
Averages and records for this station are not official NWS values.
T = Trace of Precipitation, MM = Missing Value Source: NWS Daily Summary

Daily Weather History Graph

Daily Weather History Graph

Search for Another Location

Airport or City:

Trip Planner

Search our weather history database for the weather conditions in past years. The results will help you decide how hot, cold, wet, or windy it might be!

Date:

Astronomy

Nov. 19, 2012 Rise Set
Actual Time 6:44 AM EST 4:59 PM EST
Civil Twilight 6:17 AM EST 5:26 PM EST
Nautical Twilight 5:47 AM EST 5:56 PM EST
Astronomical Twilight 5:17 AM EST 6:26 PM EST
Moon 11:51 AM EST (11/19) 11:17 PM EST (11/19)
Length of Visible Light 11h 08m
Length of Day
10h 14m
Waxing Crescent, 40% of the Moon is Illuminated
Nov 19
Waxing Crescent
Nov 20
First Quarter
Nov 28
Full
Dec 6
Last Quarter
Dec 13
New

Hourly Weather History & Observations

Time (EST) Temp. Dew Point Humidity Pressure Visibility Wind Dir Wind Speed Gust Speed Precip Events Conditions
12:56 AM 55.0 °F 55.0 °F 100% 30.16 in 8.0 mi NNE 21.9 mph 28.8 mph N/A   Overcast
1:56 AM 55.0 °F 55.0 °F 100% 30.13 in 7.0 mi North 21.9 mph 29.9 mph 0.00 in Rain Light Rain
2:56 AM 55.0 °F 55.0 °F 100% 30.14 in 8.0 mi North 19.6 mph 27.6 mph 0.00 in   Overcast
3:56 AM 55.0 °F 55.0 °F 100% 30.12 in 8.0 mi North 24.2 mph 33.4 mph N/A   Overcast
4:56 AM 54.0 °F 54.0 °F 100% 30.12 in 8.0 mi NNE 19.6 mph 31.1 mph N/A   Overcast
5:56 AM 54.0 °F 54.0 °F 100% 30.13 in 8.0 mi North 18.4 mph 29.9 mph N/A   Overcast
6:56 AM 54.0 °F 54.0 °F 100% 30.13 in 7.0 mi North 19.6 mph 26.5 mph 0.00 in   Overcast
7:56 AM 53.1 °F 53.1 °F 100% 30.12 in 5.0 mi North 21.9 mph 32.2 mph 0.00 in Rain Light Rain
8:56 AM 54.0 °F 54.0 °F 100% 30.12 in 8.0 mi North 23.0 mph 33.4 mph 0.00 in   Overcast
9:56 AM 54.0 °F 54.0 °F 100% 30.11 in 8.0 mi North 23.0 mph 31.1 mph N/A   Overcast
10:56 AM 55.0 °F 54.0 °F 96% 30.12 in 6.0 mi North 23.0 mph 38.0 mph N/A   Overcast
11:56 AM 55.0 °F 54.0 °F 96% 30.11 in 8.0 mi North 21.9 mph 32.2 mph N/A   Overcast
12:56 PM 55.0 °F 53.1 °F 93% 30.09 in 7.0 mi North 20.7 mph 35.7 mph N/A   Overcast
1:56 PM 55.9 °F 54.0 °F 93% 30.07 in 7.0 mi North 18.4 mph 26.5 mph N/A   Overcast
2:09 PM 55.4 °F 53.6 °F 94% 30.06 in 7.0 mi North 23.0 mph 34.5 mph N/A   Overcast
2:56 PM 55.9 °F 54.0 °F 93% 30.06 in 7.0 mi North 21.9 mph 31.1 mph N/A   Overcast
3:56 PM 55.0 °F 54.0 °F 96% 30.06 in 7.0 mi North 23.0 mph 32.2 mph N/A   Overcast
4:51 PM 53.6 °F 51.8 °F 94% 30.07 in 6.0 mi North 25.3 mph 34.5 mph N/A   Overcast
4:56 PM 53.1 °F 52.0 °F 96% 30.08 in 7.0 mi North 20.7 mph 34.5 mph N/A   Overcast
5:56 PM 53.1 °F 52.0 °F 96% 30.09 in 9.0 mi North 19.6 mph 28.8 mph N/A   Overcast
6:27 PM 53.6 °F 51.8 °F 94% 30.08 in 10.0 mi North 19.6 mph 29.9 mph N/A   Overcast
6:56 PM 53.1 °F 51.1 °F 93% 30.09 in 10.0 mi North 21.9 mph 32.2 mph N/A   Overcast
7:56 PM 52.0 °F 51.1 °F 97% 30.11 in 10.0 mi North 20.7 mph 26.5 mph N/A   Overcast
8:56 PM 51.1 °F 51.1 °F 100% 30.11 in 10.0 mi North 17.3 mph 23.0 mph N/A   Overcast
9:22 PM 51.8 °F 51.8 °F 100% 30.09 in 10.0 mi North 15.0 mph 24.2 mph N/A   Overcast
9:56 PM 51.1 °F 51.1 °F 100% 30.09 in 10.0 mi North 19.6 mph 28.8 mph N/A   Overcast
10:56 PM 51.1 °F 51.1 °F 100% 30.08 in 7.0 mi North 16.1 mph 24.2 mph N/A   Overcast
11:56 PM 50.0 °F 50.0 °F 100% 30.06 in 8.0 mi NNE 16.1 mph 26.5 mph N/A   Overcast